Location: Astronomy Club of Akron Observatory
(40.9700°N, 81.5606°W)
Time: 17:48:29
(UTC-05:00)

Daily predictions for brighter satellites

Satellite Brightness Start Highest point End
(mag) Time Altitude Azimuth Time Altitude Azimuth Time Altitude Azimuth
Cosmos 1809 Rocket 4.5 17:48:58 10° N 17:55:06 85° E 18:01:10 10° S
SKYMED 2 4.5 17:51:30 10° NE 17:55:19 29° E 17:59:06 10° SSE
Cosmos 1503 Rocket 4.5 17:50:42 10° NNW 17:56:01 71° WSW 18:01:20 10° S
Tiangong 1 0.7 17:56:55 10° WNW 17:59:22 52° N 18:01:48 10° E
CZ-2C R/B 4.0 17:55:39 10° NNE 18:00:15 51° E 18:04:45 10° S
Cosmos 1992 Rocket 4.2 17:57:19 10° SSW 18:02:30 76° WNW 18:07:44 10° NNE
YAOGAN 1 2.8 17:58:45 10° SSE 18:02:53 48° ENE 18:07:04 10° N
Cosmos 2154 Rocket 4.5 17:57:04 10° NNW 18:03:21 70° W 18:09:38 10° S
Cosmos 1400 Rocket 2.9 17:59:35 10° S 18:03:35 64° E 18:07:39 10° NNE
Meteor 2-21 Rocket 4.4 17:58:19 10° N 18:04:27 76° E 18:10:29 10° SSE
Cosmos 44 3.9 18:03:16 10° S 18:07:02 30° ESE 18:10:54 10° NE
Cosmos 1674 3.9 18:04:08 10° SSW 18:07:45 44° W 18:11:21 10° N
OAO 3 Rocket 4.1 18:06:57 10° WSW 18:11:19 40° S 18:15:45 10° ESE
Cosmos 2181 Rocket 4.1 18:06:03 10° S 18:12:30 81° E 18:18:56 10° N
EO 1 Del DPAF 4.3 18:10:01 10° NE 18:13:15 25° E 18:16:27 10° SSE
CZ-4 R/B 4.4 18:09:34 10° SSE 18:13:37 59° ENE 18:17:42 10° N
Geosat 4.3 18:09:13 10° NNE 18:14:14 69° WNW 18:19:13 10° SW
SMAP 3.7 18:10:30 10° S 18:15:05 61° W 18:19:43 10° NNW
ATLAS 2AS CENTAUR R/B 3.4 18:07:51 10° NW 18:15:42 69° WSW 18:22:52 10° SSE
Cosmos 968 Rocket 3.4 18:12:39 10° NNW 18:17:50 81° ENE 18:22:56 10° SSE
Cosmos 2221 2.8 18:15:37 10° N 18:20:00 76° W 18:24:21 10° S
Landsat 4 4.0 18:17:49 10° NNE 18:21:24 43° E 18:24:57 10° S
Cosmos 1626 2.9 18:19:31 10° SSE 18:22:48 30° E 18:26:04 10° NNE
MTI 4.0 18:21:46 10° NNE 18:24:53 47° E 18:27:58 10° S
Cosmos 2098 Rocket 4.4 18:20:39 10° NNE 18:25:22 32° ENE 18:31:02 10° SE
Cosmos 1703 4.4 18:24:11 10° SE 18:27:20 23° E 18:29:54 13° NE
Cosmos 2369 Rocket 3.5 18:24:44 10° NW 18:30:05 44° WSW 18:35:27 10° S
Cosmos 2058 4.2 18:27:01 10° SE 18:30:08 21° E 18:31:53 16° NE
SL-8 Rocket 4.0 18:24:33 10° N 18:30:47 86° E 18:37:01 10° S
Cosmos 1656 Rocket 3.7 18:28:53 10° NNW 18:34:15 55° ENE 18:39:41 10° SE
Cosmos 1408 Rocket 3.6 18:31:35 10° S 18:35:45 53° E 18:39:58 10° NNE
Cosmos 2218 Rocket 3.9 18:29:37 10° N 18:35:48 79° E 18:41:56 10° S
Cosmos 1300 2.8 18:31:59 10° N 18:35:49 77° W 18:39:37 10° S
Cosmos 44 Rocket 3.4 18:32:11 10° SSW 18:36:42 50° ESE 18:40:13 16° NE
NOAA 12 4.1 18:31:46 10° SSE 18:36:55 62° ENE 18:42:06 10° N
NOSS 3-4 (A) 3.9 18:31:30 10° NNW 18:38:26 58° NE 18:45:51 10° SE
NOSS 3-4 (C) 3.9 18:31:36 10° NNW 18:38:32 57° NE 18:45:57 10° SE
Cosmos 1959 Rocket 4.5 18:33:47 10° N 18:40:09 84° E 18:46:31 10° S
Cosmos 1943 Rocket 3.0 18:35:55 10° NNW 18:41:22 54° WSW 18:46:44 10° S
ERS-2 2.5 18:38:06 10° SE 18:41:35 42° ENE 18:45:05 10° N
SL-14 R/B 3.9 18:39:18 10° SSW 18:43:13 58° W 18:47:08 10° N
COSMO-SKYMED 1 2.7 18:39:07 10° N 18:43:29 81° WNW 18:47:48 10° SSW
Cosmos 2151 3.9 18:39:57 10° SSE 18:43:34 28° E 18:45:08 22° NE
Cosmos 1500 Rocket 4.5 18:44:44 10° SSE 18:48:30 27° E 18:49:29 25° ENE
CZ-4 R/B 3.4 18:45:53 10° SSW 18:49:43 33° W 18:53:35 10° NNW
Cosmos 2228 Rocket 3.5 18:49:22 10° N 18:53:40 39° ENE 18:57:58 10° SSE
SL-08 R/B 4.4 18:48:31 10° N 18:54:44 89° E 19:00:51 10° S
SL-24 R/B - RUBIN 2 3.4 18:50:49 10° NNW 18:55:22 80° NE 18:59:40 10° SE
Cosmos 332 Rocket 4.3 18:53:45 10° SSE 18:58:14 37° ESE 18:59:47 29° ENE
ALOS 2.7 18:56:09 10° S 19:00:46 65° W 19:05:26 10° NNW
FENGYUN 3A 3.9 18:56:38 10° S 19:01:57 71° WSW 19:07:20 10° NNW
Cosmos 1743 Rocket 3.6 18:58:27 10° SSE 19:02:40 50° E 19:05:04 24° NNE
TSX-5 4.4 19:03:54 10° SW 19:06:57 44° WNW 19:09:01 20° N
Cosmos 1328 Rocket 3.4 19:04:05 10° N 19:08:29 76° E 19:12:48 10° SSE
Thor Agena Rocket 4.0 19:07:19 30° NE 19:09:07 40° E 19:13:59 10° SSE
Meteor 1-27 4.1 19:03:37 10° N 19:09:21 77° E 19:15:07 10° SSE
Cosmos 1315 Rocket 4.1 19:07:11 10° SSW 19:10:53 39° WNW 19:14:37 10° N
Meteor 1-11 4.2 19:05:58 10° S 19:11:34 88° W 19:17:15 10° N
Cosmos 1346 Rocket 2.7 19:07:49 10° N 19:11:45 85° W 19:15:38 10° S
Cosmos 909 Rocket 4.2 19:08:21 10° NNW 19:15:04 52° NE 19:18:04 29° ESE
Cosmos 1821 Rocket 4.0 19:13:05 10° N 19:19:04 52° ENE 19:25:07 10° SSE
H-2A R/B 2.7 19:16:47 10° S 19:20:34 81° W 19:24:25 10° NNW
COSMOS 2406 3.1 19:15:04 10° SSW 19:20:46 72° ESE 19:23:40 30° NNE
TIMED 4.4 19:18:31 10° NNW 19:22:53 68° ENE 19:23:37 56° ESE
FengYun 1-2 T 4.2 19:21:48 10° SSE 19:27:27 88° WSW 19:33:05 10° NNW
Nadezhda 3 Rocket 3.9 19:23:50 10° S 19:30:09 89° ESE 19:36:34 10° N
Tiangong 1 3.6 19:31:16 10° W 19:32:00 17° W 19:32:00 17° W
Cosmos 1455 2.3 19:30:10 10° NNW 19:34:02 74° W 19:37:50 10° S
CZ-4C R/B 4.0 19:35:07 10° SSE 19:35:51 13° SSE 19:35:51 13° SSE
USA 81 4.1 19:35:18 10° S 19:40:34 79° W 19:45:53 10° N
Cosmos 371 Rocket 3.2 19:39:11 10° SSW 19:44:00 87° WNW 19:44:15 80° N
Cosmos 1151 Rocket 3.4 19:42:04 10° NNW 19:46:26 65° W 19:50:45 10° S
Cosmos 2208 Rocket 4.1 19:46:40 10° SSW 19:51:09 64° S 19:51:09 64° S
OAO 3 Rocket 4.4 19:50:13 10° WSW 19:54:22 31° SSW 19:54:22 31° SSW
Cosmos 1934 Rocket 3.9 19:52:31 10° N 19:58:55 79° E 20:00:15 58° SSE
GEOS 3 Rocket 3.7 19:59:26 71° S 19:59:54 77° SW 20:05:18 10° NW
Lacrosse 5 4.4 20:32:28 10° SSW 20:33:07 14° SSW 20:33:07 14° SSW
